This demonstration page uses our WeatherBlox Daily Observations layout. Learn more.

Left ArrowRight Arrow

30.21309, -93.2044

Hourly Observations for July 4, 2019

Temp ( °F °C ) Dew Point ( °F °C ) Humidity (%) Winds ( mph kmh ) Pressure ( in mb ) Visibility ( mi km ) Precip ( " mm )
12:15 am 00:15 Partly Cloudy 77 24.8 76 24.3 97 97 E 5 7 29.99 1016 10 16 0.00 0.00
12:35 am 00:35 Mostly Cloudy 77 25 76 24.6 98 98 ESE 3 6 29.99 1016 10 16 0.00 0.00
12:55 am 00:55 Partly Cloudy 76 24.6 76 24.3 98 98 Calm 29.98 1015 7 11 0.01 0.25
1:15 am 01:15 Partly Cloudy 76 24.7 76 24.5 99 99 Calm 29.98 1015 7 11 0.00 0.00
1:35 am 01:35 Partly Cloudy 76 24.7 76 24.5 99 99 Calm 29.99 1016 7 11 0.00 0.00
1:55 am 01:55 Partly Cloudy 77 25 76 24.5 97 97 Calm 29.99 1016 10 16 0.00 0.00
2:15 am 02:15 Partly Cloudy 76 24.5 76 24.2 98 98 E 3 6 29.99 1016 7 11 0.00 0.00
2:35 am 02:35 Clear 76 24.6 76 24.4 99 99 ENE 3 6 29.98 1015 7 11 0.00 0.00
2:55 am 02:55 Clear 76 24.6 76 24.3 98 98 E 3 6 29.99 1016 7 11 0.00 0.00
3:15 am 03:15 Partly Cloudy 76 24.6 76 24.3 98 98 Calm 29.99 1016 7 11 0.00 0.00
3:35 am 03:35 Partly Cloudy 76 24.5 76 24.2 98 98 E 5 7 29.98 1015 7 11 0.00 0.00
3:55 am 03:55 Clear 77 24.8 76 24.5 98 98 E 5 7 29.98 1015 7 11 0.00 0.00
4:15 am 04:15 Partly Cloudy 77 24.8 76 24.5 98 98 ESE 5 7 29.98 1015 7 11 0.00 0.00
4:35 am 04:35 Clear 76 24.7 76 24.5 99 99 Calm 29.98 1015 7 11 0.00 0.00
4:55 am 04:55 Clear 77 24.9 76 24.5 98 98 Calm 29.98 1015 7 11 0.00 0.00
5:15 am 05:15 Clear 76 24.5 75 24.1 98 98 E 3 6 29.98 1015 7 11 0.00 0.00
5:35 am 05:35 Clear 76 24.6 76 24.3 98 98 Calm 29.98 1015 7 11 0.01 0.25
6:00 am 06:00 Mostly Clear 75 24 75 24 100 100 ESE 3 6 29.99 1016 7 11 0.00 0.00
6:47 am 06:47 Mostly Cloudy 77 25 75 24 94 94 Calm 29.99 1016 7 11 0.00 0.00
7:47 am 07:47 Mostly Cloudy 79 26 77 25 94 94 Calm 30.02 1017 7 11 0.00 0.00
8:53 am 08:53 Partly Cloudy 84 29 79 26 84 84 SSE 6 9 30.04 1017 7 11 0.00 0.00
9:55 am 09:55 Mostly Cloudy 86 30 79 26 79 79 S 7 11 30.03 1017 7 11 0.00 0.00
10:55 am 10:55 Mostly Cloudy 88 31 79 26 75 75 S 8 13 30.03 1017 7 11 0.00 0.00
11:55 am 11:55 Mostly Cloudy 90 32 77 25 67 67 S 8 13 30.04 1017 7 11 0.00 0.00
12:47 pm 12:47 Partly Cloudy 90 32 75 24 63 63 SW 10 17 30.04 1017 7 11 0.00 0.00
1:55 pm 13:55 Mostly Cloudy 91 33 77 25 63 63 S 12 19 30.04 1017 7 11 0.00 0.00
2:55 pm 14:55 Mostly Cloudy 91 33 77 25 63 63 S 12 19 30.03 1017 7 11 0.00 0.00
3:50 pm 15:50 Mostly Cloudy 90 32 54 12 29 29 SSW 3 6 30.02 1017 10 16 0.00 0.00
4:50 pm 16:50 Mostly Cloudy 90 32 73 23 59 59 SW 10 17 30.02 1017 10 16 0.00 0.00
5:50 pm 17:50 Partly Cloudy 90 32 75 24 63 63 SSW 12 19 30.00 1016 10 16 0.00 0.00
6:55 pm 18:55 Partly Cloudy 90 32 75 24 63 63 SSW 12 19 30.00 1016 10 16 0.00 0.00
9:50 pm 21:50 Mostly Clear 79 26 77 25 94 94 ESE 8 13 30.02 1017 10 16 0.00 0.00
10:15 pm 22:15 Clear 78 25.6 76 24.7 95 95 ESE 8 13 30.03 1017 10 16 0.00 0.00
10:35 pm 22:35 Clear 78 25.5 76 24.7 95 95 SE 6 9 30.04 1017 10 16 0.00 0.00
10:55 pm 22:55 Clear 78 25.5 76 24.6 95 95 ESE 8 13 30.05 1018 10 16 0.00 0.00
11:15 pm 23:15 Clear 78 25.4 76 24.7 96 96 SE 5 7 30.05 1018 10 16 0.00 0.00
11:35 pm 23:35 Clear 78 25.3 76 24.7 96 96 SE 5 7 30.05 1018 10 16 0.00 0.00
11:55 pm 23:55 Clear 78 25.4 77 24.9 97 97 SE 3 6 30.05 1018 10 16 0.00 0.00

Powered by AerisWeather